User: anonymous
Location: Churchill
(58.7670°N, 94.1670°W)
Time: 22:40:49
(UTC-05:00)
Language:

Cosmos 1315 Rocket - Orbit

View from above orbital plane
View from above orbital plane
View from above satellite
View from above satellite

Ground track
Ground track

The orbit data is extracted from the following two-line orbital elements,

1 12904U 81103B   14293.13957084  .00002818  00000-0  20642-3 0  6099
2 12904 081.1756 303.2957 0029797 020.1878 340.0514 15.02903384346819
Epoch (UTC): 20 October 2014 03:20:58
Eccentricity: 0.0029797
inclination: 81.1756°
perigee height: 537 km
apogee height: 578 km
right ascension of ascending node: 303.2957°
argument of perigee: 20.1878°
revolutions per day: 15.02903384
mean anomaly at epoch: 340.0514°
orbit number at epoch: 34681

The dashed part of the orbit path shows where the satellite is in the earth's shadow,  

DLR